Location: Columbia
(38.9520°N, 92.3340°W)
Time: 08:53:50
(UTC-06:00)

SJ-11-01 - Visible Passes

Search period start: 24 February 2017 00:00
Search period end: 06 March 2017 00:00
Orbit: 686 x 700 km, 98.2° (Epoch: 24 February)

Date Brightness Start Highest point End Pass type
(mag) Time Alt. Az. Time Alt. Az. Time Alt. Az.
24 Feb 5.7 19:42:03 24° NNE 19:42:03 24° NNE 19:44:25 10° N visible
24 Feb 7.0 21:20:43 15° NW 21:20:43 15° NW 21:21:45 10° NW visible
25 Feb 5.6 20:22:18 31° N 20:22:18 31° N 20:24:48 10° N visible
26 Feb 5.8 19:23:53 19° NE 19:23:53 19° NE 19:26:17 10° NNE visible
26 Feb 6.5 21:02:34 22° NW 21:02:34 22° NW 21:04:29 10° NNW visible
27 Feb 5.3 20:04:08 34° NNE 20:04:08 34° NNE 20:07:02 10° N visible
27 Feb 7.4 21:42:49 11° WNW 21:42:49 11° WNW 21:43:01 10° NW visible
28 Feb 6.1 19:05:43 14° ENE 19:05:43 14° ENE 19:07:48 10° NNE visible
28 Feb 5.8 20:44:25 32° NNW 20:44:25 32° NNW 20:47:02 10° NNW visible
01 Mar 5.3 19:45:59 30° NE 19:45:59 30° NE 19:49:08 10° N visible
01 Mar 6.9 21:24:40 17° WNW 21:24:40 17° WNW 21:26:13 10° NW visible
02 Mar 5.1 20:26:15 43° NNW 20:26:15 43° NNW 20:29:26 10° NNW visible
03 Mar 5.5 19:27:50 23° ENE 19:27:50 23° ENE 19:31:03 10° NNE visible
03 Mar 6.3 21:06:31 26° NW 21:06:31 26° NW 21:09:03 10° NNW visible
04 Mar 4.8 20:08:06 46° NNE 20:08:06 46° NNE 20:11:43 10° N visible
04 Mar 7.3 21:46:47 11° WNW 21:46:47 11° WNW 21:47:18 10° WNW visible
05 Mar 5.9 19:09:41 16° ENE 19:09:53 16° ENE 19:12:42 10° NNE visible
05 Mar 5.5 20:48:23 39° NW 20:48:23 39° NW 20:51:38 10° NNW visible
